Location: JKWMA (FRAC)
(33.1803°N, 84.5512°W)
Time: 19:24:02
(UTC-05:00)

Hubble Space Telescope - Visible Passes

Search period start: 12 November 2019 00:00
Search period end: 22 November 2019 00:00
Orbit: 536 x 540 km, 28.5° (Epoch: 12 November)

Date Brightness Start Highest point End Pass type
(mag) Time Alt. Az. Time Alt. Az. Time Alt. Az.
16 Nov 3.4 19:59:02 10° SW 19:59:50 14° SSW 19:59:50 14° SSW visible
17 Nov 3.3 18:10:26 10° SSE 18:11:06 10° SSE 18:11:46 10° SE visible
17 Nov 2.9 19:48:10 10° SW 19:49:56 20° SSW 19:49:56 20° SSW visible
18 Nov 3.1 17:58:25 10° S 18:00:24 13° SSE 18:02:23 10° SE visible
18 Nov 2.4 19:37:24 10° SW 19:39:59 27° SSW 19:39:59 27° SSW visible
19 Nov 1.9 19:26:39 10° WSW 19:30:01 34° S 19:30:01 34° S visible
20 Nov 1.6 19:15:57 10° WSW 19:19:48 38° S 19:20:03 38° SSE visible
21 Nov 1.5 19:05:17 10° WSW 19:09:10 41° S 19:10:04 35° SE visible
